TimeEDT,TemperatureF,Dew PointF,Humidity,Sea Level PressureIn,VisibilityMPH,Wind Direction,Wind SpeedMPH,Gust SpeedMPH,PrecipitationIn,Events,Conditions,WindDirDegrees,DateUTC
12:15 AM,57.2,51.8,82,29.54,10.0,NE,4.6,-,N/A,,Scattered Clouds,40,2012-10-31 04:15:00
12:35 AM,55.4,51.8,88,29.54,10.0,Calm,Calm,-,N/A,,Scattered Clouds,0,2012-10-31 04:35:00
12:55 AM,55.4,51.8,88,29.53,10.0,Calm,Calm,-,N/A,,Scattered Clouds,0,2012-10-31 04:55:00
1:15 AM,55.4,51.8,88,29.53,10.0,Calm,Calm,-,N/A,,Mostly Cloudy,0,2012-10-31 05:15:00
1:35 AM,53.6,50.0,88,29.52,10.0,Calm,Calm,-,N/A,,Mostly Cloudy,0,2012-10-31 05:35:00
1:55 AM,53.6,50.0,88,29.51,3.0,Calm,Calm,-,N/A,,Partly Cloudy,0,2012-10-31 05:55:00
2:15 AM,53.6,48.2,82,29.52,0.8,Calm,Calm,-,N/A,,Overcast,0,2012-10-31 06:15:00
2:35 AM,51.8,48.2,88,29.51,0.8,Calm,Calm,-,N/A,,Overcast,0,2012-10-31 06:35:00
2:55 AM,53.6,50.0,88,29.51,8.0,ENE,6.9,-,N/A,,Mostly Cloudy,70,2012-10-31 06:55:00
3:15 AM,55.4,51.8,88,29.51,10.0,ENE,10.4,-,N/A,,Mostly Cloudy,70,2012-10-31 07:15:00
3:35 AM,55.4,51.8,88,29.51,10.0,East,5.8,-,N/A,,Overcast,80,2012-10-31 07:35:00
3:55 AM,55.4,51.8,88,29.50,10.0,Calm,Calm,-,N/A,,Mostly Cloudy,0,2012-10-31 07:55:00
4:15 AM,55.4,51.8,88,29.49,10.0,Calm,Calm,-,N/A,,Partly Cloudy,0,2012-10-31 08:15:00
4:35 AM,55.4,51.8,88,29.49,10.0,Calm,Calm,-,N/A,,Mostly Cloudy,0,2012-10-31 08:35:00
4:55 AM,55.4,51.8,88,29.49,10.0,ENE,12.7,-,N/A,,Overcast,70,2012-10-31 08:55:00
5:15 AM,55.4,51.8,88,29.48,10.0,ENE,10.4,-,N/A,,Overcast,70,2012-10-31 09:15:00
5:35 AM,57.2,53.6,88,29.48,9.0,ENE,6.9,-,N/A,,Overcast,70,2012-10-31 09:35:00
5:55 AM,57.2,53.6,88,29.47,10.0,ENE,8.1,-,N/A,,Overcast,60,2012-10-31 09:55:00
6:15 AM,57.2,53.6,88,29.46,10.0,East,8.1,-,N/A,,Mostly Cloudy,80,2012-10-31 10:15:00
6:35 AM,57.2,53.6,88,29.46,8.0,East,11.5,-,N/A,,Overcast,90,2012-10-31 10:35:00
6:55 AM,57.2,51.8,82,29.46,8.0,East,8.1,-,N/A,,Mostly Cloudy,80,2012-10-31 10:55:00
7:15 AM,57.2,51.8,82,29.46,10.0,ENE,5.8,-,N/A,,Overcast,60,2012-10-31 11:15:00
7:35 AM,57.2,51.8,82,29.46,10.0,ENE,8.1,-,N/A,,Overcast,70,2012-10-31 11:35:00
7:55 AM,57.2,51.8,82,29.47,10.0,East,4.6,-,N/A,,Overcast,100,2012-10-31 11:55:00
8:15 AM,57.2,51.8,82,29.47,10.0,SSE,5.8,-,N/A,,Overcast,150,2012-10-31 12:15:00
8:35 AM,57.2,51.8,82,29.47,10.0,SE,4.6,-,N/A,,Overcast,130,2012-10-31 12:35:00
8:55 AM,57.2,51.8,82,29.47,10.0,SE,4.6,-,N/A,,Overcast,130,2012-10-31 12:55:00
9:15 AM,57.2,51.8,82,29.48,10.0,SSE,9.2,-,N/A,,Overcast,160,2012-10-31 13:15:00
9:35 AM,57.2,51.8,82,29.48,10.0,SSE,6.9,-,N/A,,Overcast,150,2012-10-31 13:35:00
9:55 AM,57.2,51.8,82,29.48,10.0,SSE,8.1,-,N/A,,Mostly Cloudy,160,2012-10-31 13:55:00
10:15 AM,57.2,48.2,72,29.49,10.0,South,6.9,18.4,N/A,,Mostly Cloudy,180,2012-10-31 14:15:00
10:35 AM,59.0,46.4,63,29.49,10.0,SSW,8.1,-,N/A,,Overcast,200,2012-10-31 14:35:00
10:55 AM,59.0,44.6,59,29.49,10.0,South,8.1,18.4,N/A,,Overcast,190,2012-10-31 14:55:00
11:15 AM,57.2,46.4,67,29.49,10.0,SSW,8.1,-,N/A,,Mostly Cloudy,200,2012-10-31 15:15:00
11:35 AM,57.2,46.4,67,29.50,10.0,South,8.1,-,N/A,,Mostly Cloudy,190,2012-10-31 15:35:00
11:55 AM,57.2,46.4,67,29.49,10.0,South,3.5,-,N/A,,Overcast,190,2012-10-31 15:55:00
12:15 PM,57.2,44.6,63,29.50,10.0,SSE,10.4,19.6,N/A,,Overcast,150,2012-10-31 16:15:00
12:35 PM,57.2,44.6,63,29.49,10.0,SSW,10.4,20.7,N/A,,Overcast,200,2012-10-31 16:35:00
12:55 PM,57.2,44.6,63,29.48,10.0,South,8.1,-,N/A,,Overcast,180,2012-10-31 16:55:00
1:15 PM,57.2,44.6,63,29.49,10.0,South,9.2,18.4,N/A,,Overcast,180,2012-10-31 17:15:00
1:35 PM,57.2,44.6,63,29.48,10.0,South,11.5,16.1,N/A,,Mostly Cloudy,190,2012-10-31 17:35:00
1:55 PM,55.4,42.8,63,29.48,10.0,SSW,8.1,-,N/A,,Overcast,200,2012-10-31 17:55:00
2:15 PM,53.6,44.6,72,29.48,10.0,WSW,9.2,-,N/A,,Overcast,250,2012-10-31 18:15:00
2:35 PM,53.6,42.8,67,29.48,10.0,WSW,10.4,-,N/A,,Overcast,240,2012-10-31 18:35:00
2:55 PM,53.6,44.6,72,29.48,10.0,South,9.2,-,N/A,,Overcast,190,2012-10-31 18:55:00
3:15 PM,53.6,42.8,67,29.48,10.0,South,9.2,-,N/A,,Overcast,190,2012-10-31 19:15:00
3:35 PM,55.4,41.0,58,29.48,10.0,SSW,10.4,-,N/A,,Overcast,210,2012-10-31 19:35:00
3:55 PM,55.4,41.0,58,29.48,10.0,SSW,10.4,-,N/A,,Overcast,200,2012-10-31 19:55:00
4:15 PM,53.6,41.0,62,29.48,10.0,SSW,5.8,-,N/A,,Overcast,200,2012-10-31 20:15:00
4:35 PM,53.6,39.2,58,29.48,10.0,SW,6.9,-,N/A,,Overcast,230,2012-10-31 20:35:00
4:55 PM,53.6,39.2,58,29.48,10.0,South,5.8,-,N/A,,Overcast,190,2012-10-31 20:55:00
5:15 PM,53.6,41.0,62,29.48,10.0,SSW,6.9,-,N/A,,Overcast,200,2012-10-31 21:15:00
5:35 PM,53.6,41.0,62,29.49,10.0,SSW,8.1,-,N/A,,Overcast,200,2012-10-31 21:35:00
5:55 PM,53.6,41.0,62,29.49,10.0,South,6.9,-,N/A,,Overcast,190,2012-10-31 21:55:00
6:15 PM,51.8,41.0,67,29.49,10.0,South,4.6,-,N/A,,Overcast,190,2012-10-31 22:15:00
6:35 PM,51.8,41.0,67,29.50,10.0,South,4.6,-,N/A,,Mostly Cloudy,190,2012-10-31 22:35:00
6:55 PM,51.8,41.0,67,29.51,10.0,South,4.6,-,N/A,,Mostly Cloudy,190,2012-10-31 22:55:00
7:15 PM,51.8,41.0,67,29.50,10.0,South,4.6,-,N/A,,Overcast,190,2012-10-31 23:15:00
7:35 PM,51.8,41.0,67,29.51,10.0,South,4.6,-,N/A,,Overcast,180,2012-10-31 23:35:00
7:55 PM,51.8,39.2,62,29.50,10.0,South,8.1,-,N/A,,Overcast,170,2012-10-31 23:55:00
8:15 PM,51.8,39.2,62,29.50,10.0,South,8.1,-,N/A,,Overcast,190,2012-11-01 00:15:00
8:35 PM,51.8,39.2,62,29.51,10.0,South,8.1,-,N/A,,Overcast,190,2012-11-01 00:35:00
8:55 PM,51.8,39.2,62,29.51,10.0,SSW,6.9,-,N/A,,Overcast,200,2012-11-01 00:55:00
9:15 PM,50.0,39.2,66,29.51,10.0,South,6.9,-,N/A,,Mostly Cloudy,190,2012-11-01 01:15:00
9:35 PM,50.0,39.2,66,29.51,10.0,SSW,4.6,-,N/A,,Mostly Cloudy,200,2012-11-01 01:35:00
9:55 PM,50.0,39.2,66,29.51,10.0,South,6.9,-,N/A,,Mostly Cloudy,190,2012-11-01 01:55:00
10:15 PM,48.2,39.2,71,29.51,10.0,SSW,5.8,-,N/A,,Mostly Cloudy,200,2012-11-01 02:15:00
10:35 PM,-9999,-9999,N/A,29.50,10.0,SSW,5.8,-,N/A,,Overcast,210,2012-11-01 02:35:00
10:55 PM,48.2,39.2,71,29.51,10.0,SSW,4.6,-,N/A,,Overcast,210,2012-11-01 02:55:00
11:15 PM,48.2,39.2,71,29.51,10.0,SSW,3.5,-,N/A,,Overcast,210,2012-11-01 03:15:00
11:35 PM,48.2,39.2,71,29.51,10.0,SW,4.6,-,N/A,,Overcast,220,2012-11-01 03:35:00
11:55 PM,48.2,39.2,71,29.51,10.0,SSW,9.2,-,N/A,,Overcast,200,2012-11-01 03:55:00